Location: Sommers-Bausch Observatory
(40.0037°N, 105.2635°W)
Time: 23:18:09
(UTC-06:00)

Amateur Radio Satellites - All Passes

Search period start: 23 April 2017 22:48
Search period end: 24 April 2017 22:48
Location: Sommers-Bausch Observatory, 40.0037°N, 105.2635°W

Satellite Date Start Highest point End Downlink Frequencies (MHz)
Time Altitude Azimuth
NO-84 23 Apr 22:54:10 22:55:33 12° 335° (NNW) 22:56:53 435.350 FM
BEESAT 3 23 Apr 22:56:29 22:59:41 22° 48° (NE) 23:02:51 437.485
FO-29 23 Apr 23:01:30 23:06:30 46° 100° (E) 23:11:42 435.910
LO-87 23 Apr 23:12:11 23:15:49 76° 76° (ENE) 23:19:28 145.935 - 145.965
ESTCUBE 1 23 Apr 23:26:12 23:30:36 58° 74° (ENE) 23:35:03 437.505/2401.250
TIGRISAT 23 Apr 23:31:08 23:35:20 59° 285° (WNW) 23:39:33 435.000
AIST 2D 23 Apr 23:37:29 23:40:04 19° 94° (E) 23:42:39 435.315
NANOSAT C BR1 23 Apr 23:41:11 23:42:00 10° 90° (E) 23:42:49 145.865
AO-85 23 Apr 23:43:19 23:46:25 22° 247° (WSW) 23:49:38 145.980
SPROUT 23 Apr 23:45:46 23:49:12 24° 68° (ENE) 23:52:37 437.525
UNISAT 6 23 Apr 23:51:41 23:55:30 32° 290° (WNW) 23:59:21 437.425
VELOX 1 23 Apr 23:54:02 23:58:01 33° 70° (ENE) 00:02:01 145.980
EO-79 24 Apr 00:04:39 00:07:59 23° 95° (E) 00:11:19 145.935-145.965
50 SAT 24 Apr 00:08:17 00:11:01 22° 69° (ENE) 00:13:45 437.505
DUCHIFAT 1 24 Apr 00:10:38 00:13:53 22° 95° (E) 00:17:05 145.980
PRISM 24 Apr 00:21:16 00:21:47 10° 298° (WNW) 00:22:20 437.425
BEESAT 2 24 Apr 00:24:51 00:28:55 68° 57° (ENE) 00:32:55 435.950
UKube-1 24 Apr 00:30:47 00:34:08 22° 67° (ENE) 00:37:29 .
BEESAT 3 24 Apr 00:33:41 00:37:21 34° 245° (WSW) 00:40:58 437.485
POLYITAN 1 24 Apr 00:42:16 00:46:26 63° 100° (E) 00:50:35 437.675
FO-29 24 Apr 00:47:33 00:51:20 21° 295° (WNW) 00:55:12 435.910
QB50P2 24 Apr 00:48:40 00:52:53 83° 101° (ESE) 00:57:05 145.880/145.840
DX 1 24 Apr 00:56:00 01:00:19 60° 74° (ENE) 01:04:39 434.975-435.025
ESTCUBE 1 24 Apr 01:05:49 01:07:46 13° 269° (W) 01:09:44 437.505/2401.250
AIST 2D 24 Apr 01:10:25 01:13:13 23° 290° (WNW) 01:16:02 435.315
NANOSAT C BR1 24 Apr 01:13:57 01:18:04 60° 286° (WNW) 01:22:11 145.865
SPROUT 24 Apr 01:21:15 01:24:58 28° 264° (W) 01:28:40 437.525
BUGSAT 1 24 Apr 01:24:56 01:28:49 47° 99° (E) 01:32:41 437.445
VELOX 1 24 Apr 01:31:02 01:34:29 22° 265° (W) 01:37:59 145.980
Gurwin Techsat 1B 24 Apr 01:32:36 01:33:59 11° 89° (E) 01:35:24 435.225
EO-79 24 Apr 01:40:08 01:43:43 28° 291° (WNW) 01:47:17 145.935-145.965
50 SAT 24 Apr 01:41:17 01:43:53 20° 265° (W) 01:46:30 437.505
DUCHIFAT 1 24 Apr 01:45:55 01:49:32 29° 290° (WNW) 01:53:08 145.980
BEESAT 24 Apr 01:48:14 01:50:33 14° 62° (ENE) 01:52:52 436.000
Oscar 19 24 Apr 01:53:37 01:58:17 32° 97° (E) 02:02:54 437.125/150
BEESAT 2 24 Apr 02:05:49 02:06:05 10° 253° (WSW) 02:06:20 435.950
UKube-1 24 Apr 02:06:06 02:09:58 32° 263° (W) 02:13:52 .
PCSat 24 Apr 02:17:05 02:21:06 22° 106° (ESE) 02:25:08 145.827
POLYITAN 1 24 Apr 02:20:21 02:21:40 11° 297° (WNW) 02:22:59 437.675
ITUPSAT 1 24 Apr 02:24:35 02:28:42 30° 68° (ENE) 02:32:50 437.325
DX 1 24 Apr 02:35:20 02:36:52 12° 269° (W) 02:38:24 434.975-435.025
BUGSAT 1 24 Apr 03:01:48 03:03:45 13° 296° (WNW) 03:05:42 437.445
Gurwin Techsat 1B 24 Apr 03:09:13 03:14:34 84° 285° (WNW) 03:19:52 435.225
AO-7 24 Apr 03:13:23 03:18:58 19° 92° (E) 03:24:30 .
ITAMSAT 1 24 Apr 03:13:51 03:16:52 15° 92° (E) 03:19:53 435.822/435.867
BEESAT 24 Apr 03:23:02 03:27:45 67° 258° (WSW) 03:32:30 436.000
Oscar 19 24 Apr 03:33:00 03:37:30 30° 293° (WNW) 03:41:58 437.125/150
MOZHAYETS 4 24 Apr 03:43:41 03:48:13 89° 245° (WSW) 03:52:49
NO-84 24 Apr 03:48:47 03:51:35 45° 40° (NE) 03:54:19 435.350 FM
PCSat 24 Apr 03:58:50 04:04:05 51° 303° (WNW) 04:09:24 145.827
ITUPSAT 1 24 Apr 04:02:27 04:06:28 27° 264° (W) 04:10:32 437.325
KKS-1 24 Apr 04:18:21 04:22:31 39° 71° (ENE) 04:26:42 437.445
CUBESAT XI-V 24 Apr 04:26:37 04:30:59 43° 72° (ENE) 04:35:25 437.345
YUBILEINY 24 Apr 04:36:41 04:44:57 51° 89° (E) 04:53:15 435.215
ITAMSAT 1 24 Apr 04:51:37 04:56:43 61° 287° (WNW) 05:01:48 435.822/435.867
Gurwin Techsat 1B 24 Apr 04:52:08 04:53:39 11° 302° (WNW) 04:55:10 435.225
STARS 24 Apr 04:58:32 05:02:45 46° 72° (ENE) 05:06:59 437.465
AO-7 24 Apr 05:04:14 05:12:35 84° 288° (WNW) 05:20:55 .
NO-84 24 Apr 05:28:08 05:28:42 10° 235° (SW) 05:29:16 435.350 FM
DOVE 4 24 Apr 05:49:35 05:52:10 15° 90° (E) 05:54:39 437.250
KKS-1 24 Apr 05:56:04 05:59:12 19° 266° (W) 06:02:21 437.445
CUBESAT XI-V 24 Apr 06:05:26 06:08:33 18° 268° (W) 06:11:43 437.345
XW-2F 24 Apr 06:05:33 06:06:16 10° 91° (E) 06:06:59 145.980 - 146.000
NUDT-PHONESAT 24 Apr 06:24:43 06:26:54 15° 93° (E) 06:29:04 437.300
RS-15 24 Apr 06:27:22 06:36:01 24° 99° (E) 06:44:50 29.354- 29.394
YUBILEINY 24 Apr 06:34:20 06:42:00 34° 289° (WNW) 06:49:44 435.215
STARS 24 Apr 06:36:41 06:39:19 15° 267° (W) 06:41:56 437.465
SO-50 24 Apr 06:36:41 06:40:19 23° 112° (ESE) 06:43:56 436.795
XW-2D 24 Apr 06:50:40 06:54:18 42° 99° (E) 06:57:56 145.860 - 145.880
XW-2B 24 Apr 06:57:28 07:01:10 50° 99° (E) 07:04:53 145.730 - 145.750
AO-7 24 Apr 06:58:44 07:04:10 20° 309° (NW) 07:09:36 .
M-CUBED/EXP-1 PRIME 24 Apr 07:00:45 07:05:12 56° 68° (ENE) 07:09:48 437.505
LilacSat-2 24 Apr 07:04:57 07:08:46 68° 102° (ESE) 07:12:35 437.200
STRAND 1 24 Apr 07:05:29 07:10:19 44° 71° (ENE) 07:15:08 437.568
XW-2C 24 Apr 07:09:10 07:12:59 74° 103° (ESE) 07:16:47 145.795 - 145.815
KAITUO 1B 24 Apr 07:14:02 07:17:47 66° 102° (ESE) 07:21:32 145.475/437.950
CUTE-I 24 Apr 07:17:31 07:22:50 68° 102° (ESE) 07:28:06 437.470
HO-68 24 Apr 07:18:57 07:24:00 20° 92° (E) 07:29:01 435.675
DOVE 4 24 Apr 07:25:40 07:30:14 50° 287° (WNW) 07:34:30 437.250
XW-2F 24 Apr 07:37:00 07:40:40 49° 286° (WNW) 07:44:21 145.980 - 146.000
NUDT-PHONESAT 24 Apr 07:57:33 08:00:54 33° 288° (WNW) 08:04:15 437.300
SO-50 24 Apr 08:16:13 08:20:33 39° 308° (NW) 08:24:52 436.795
CUTE 1.7 + AOD 2 24 Apr 08:22:41 08:26:57 63° 100° (E) 08:31:12 437.475
XW-2D 24 Apr 08:26:18 08:28:07 13° 294° (WNW) 08:29:56 145.860 - 145.880
Tancredo 1 24 Apr 08:26:39 08:28:19 14° 130° (SE) 08:30:01 437.200
ISS 24 Apr 08:27:45 08:28:51 11° 129° (SE) 08:29:57 437.550
AAUSAT CUBESAT 2 24 Apr 08:29:53 08:33:12 22° 94° (E) 08:36:28 437.432
XW-2B 24 Apr 08:33:40 08:34:55 11° 295° (WNW) 08:36:09 145.730 - 145.750
RS-15 24 Apr 08:34:46 08:46:49 89° 300° (WNW) 08:59:18 29.354- 29.394
M-CUBED/EXP-1 PRIME 24 Apr 08:37:16 08:39:56 15° 264° (W) 08:42:37 437.505
STRAND 1 24 Apr 08:45:52 08:49:39 21° 266° (W) 08:53:29 437.568
Oscar 11 24 Apr 08:46:49 08:48:50 13° 91° (E) 08:50:52 .
SEEDS 24 Apr 08:48:09 08:52:26 80° 100° (E) 08:56:41 437.485
UWE-3 24 Apr 08:51:48 08:55:37 34° 97° (E) 08:59:29 435.000/436.395/437.385
XW-2A 24 Apr 08:51:53 08:55:04 42° 286° (WNW) 08:58:15 145.665 - 145.685
TIGRISAT 24 Apr 08:56:35 08:56:59 10° 62° (ENE) 08:57:24 435.000
CUBEBUG 2 24 Apr 08:58:47 09:02:56 71° 101° (ESE) 09:07:07 437.445
CUTE-I 24 Apr 08:59:09 09:02:16 16° 299° (WNW) 09:05:25 437.470
HO-68 24 Apr 09:05:08 09:12:19 73° 289° (WNW) 09:19:28 435.675
UNISAT 6 24 Apr 09:14:11 09:17:08 18° 66° (ENE) 09:20:03 437.425
FO-29 24 Apr 09:14:14 09:18:45 21° 65° (ENE) 09:22:56 435.910
PRISM 24 Apr 09:31:15 09:35:11 44° 72° (ENE) 09:39:09 437.425
DELFI C3 24 Apr 09:40:08 09:42:11 14° 92° (E) 09:44:13 145.870
ZACube-1 24 Apr 09:53:22 09:57:34 81° 284° (WNW) 10:01:50 437.345
CUTE 1.7 + AOD 2 24 Apr 10:00:38 10:02:14 12° 297° (WNW) 10:03:50 437.475
Tancredo 1 24 Apr 10:00:53 10:03:55 55° 325° (NW) 10:06:59 437.200
ISS 24 Apr 10:01:39 10:04:54 72° 324° (NW) 10:08:09 437.550
AO-73 24 Apr 10:01:56 10:06:07 71° 284° (WNW) 10:10:22 145.935
AAUSAT CUBESAT 2 24 Apr 10:05:01 10:08:37 29° 290° (WNW) 10:12:14 437.432
Oscar 11 24 Apr 10:21:02 10:25:16 53° 286° (WNW) 10:29:29 .
TIGRISAT 24 Apr 10:28:39 10:33:04 77° 257° (WSW) 10:37:25 435.000
UWE-3 24 Apr 10:28:53 10:31:51 19° 292° (WNW) 10:34:49 435.000/436.395/437.385
UNISAT 6 24 Apr 10:49:21 10:53:32 41° 261° (W) 10:57:40 437.425
RS-15 24 Apr 10:50:32 11:01:12 33° 327° (NNW) 11:12:03 29.354- 29.394
HO-68 24 Apr 10:55:23 10:58:48 14° 308° (NW) 11:02:14 435.675
FO-29 24 Apr 10:56:59 11:03:29 60° 258° (WSW) 11:09:15 435.910
EO-79 24 Apr 10:57:00 10:59:42 17° 66° (ENE) 11:02:24 145.935-145.965
OBJECT BX 24 Apr 11:00:22 11:04:01 79° 284° (WNW) 11:07:40 145.990 - 145.960
DUCHIFAT 1 24 Apr 11:02:29 11:05:00 16° 65° (ENE) 11:07:31 145.980
PCSat 24 Apr 11:04:51 11:08:36 18° 45° (NE) 11:12:19 145.827
PRISM 24 Apr 11:08:24 11:10:40 14° 268° (W) 11:12:58 437.425
O/OREOS (USA 219) 24 Apr 11:11:14 11:15:48 77° 110° (ESE) 11:20:25 437.305
DELFI C3 24 Apr 11:13:22 11:17:10 42° 287° (WNW) 11:20:57 145.870
ESTCUBE 1 24 Apr 11:21:01 11:23:09 13° 91° (E) 11:25:15 437.505/2401.250
POLYITAN 1 24 Apr 11:33:55 11:37:54 42° 72° (ENE) 11:41:53 437.675
Tancredo 1 24 Apr 11:38:43 11:40:24 14° 344° (NNW) 11:42:06 437.200
ISS 24 Apr 11:39:42 11:41:50 16° 342° (NNW) 11:43:58 437.550
QB50P2 24 Apr 11:40:12 11:44:19 54° 74° (ENE) 11:48:27 145.880/145.840
AIST 2D 24 Apr 11:43:10 11:46:38 73° 258° (WSW) 11:50:07 435.315
NANOSAT C BR1 24 Apr 12:04:45 12:08:58 88° 77° (ENE) 12:13:11 145.865
LO-87 24 Apr 12:13:09 12:16:44 76° 283° (WNW) 12:20:16 145.935 - 145.965
BUGSAT 1 24 Apr 12:13:50 12:17:29 30° 71° (ENE) 12:21:07 437.445
AO-85 24 Apr 12:18:51 12:20:27 12° 110° (ESE) 12:22:01 145.980
EO-79 24 Apr 12:31:08 12:35:07 41° 261° (W) 12:39:08 145.935-145.965
DUCHIFAT 1 24 Apr 12:36:18 12:40:18 43° 261° (W) 12:44:19 145.980
PCSat 24 Apr 12:47:09 12:52:35 75° 244° (WSW) 12:57:58 145.827
DX 1 24 Apr 12:47:33 12:48:29 11° 90° (E) 12:49:24 434.975-435.025
Gurwin Techsat 1B 24 Apr 12:51:53 12:55:30 19° 63° (ENE) 12:59:06 435.225
O/OREOS (USA 219) 24 Apr 12:53:54 12:55:48 12° 308° (NW) 12:57:42 437.305
ESTCUBE 1 24 Apr 12:55:49 13:00:17 57° 286° (WNW) 13:04:43 437.505/2401.250
50 SAT 24 Apr 13:04:49 13:07:43 24° 96° (E) 13:10:35 437.505
SPROUT 24 Apr 13:06:51 13:10:58 47° 99° (E) 13:15:02 437.525
Oscar 19 24 Apr 13:09:39 13:14:31 44° 70° (ENE) 13:19:26 437.125/150
RS-15 24 Apr 13:10:33 13:19:15 21° 2° (N) 13:27:51 29.354- 29.394
POLYITAN 1 24 Apr 13:11:21 13:13:51 15° 267° (W) 13:16:22 437.675
Tancredo 1 24 Apr 13:16:58 13:17:24 10° 5° (N) 13:17:50 437.200
ISS 24 Apr 13:18:28 13:19:23 11° 3° (N) 13:20:18 437.550
QB50P2 24 Apr 13:18:48 13:20:25 12° 269° (W) 13:22:03 145.880/145.840
VELOX 1 24 Apr 13:20:22 13:24:48 73° 101° (ESE) 13:29:12 145.980
BUGSAT 1 24 Apr 13:49:43 13:52:51 21° 265° (W) 13:55:59 437.445
UKube-1 24 Apr 13:53:12 13:57:18 41° 99° (E) 14:01:22 .
AO-85 24 Apr 13:56:08 14:00:24 62° 303° (WNW) 14:04:27 145.980
AO-7 24 Apr 14:11:42 14:18:25 28° 56° (NE) 14:25:06 .
BEESAT 2 24 Apr 14:17:28 14:19:20 13° 109° (ESE) 14:21:13 435.950
DX 1 24 Apr 14:20:44 14:25:04 65° 286° (WNW) 14:29:22 434.975-435.025
BEESAT 3 24 Apr 14:22:18 14:26:00 41° 116° (ESE) 14:29:46 437.485
Gurwin Techsat 1B 24 Apr 14:29:45 14:34:58 57° 260° (W) 14:40:13 435.225
ITAMSAT 1 24 Apr 14:30:49 14:34:54 24° 65° (ENE) 14:38:58 435.822/435.867
50 SAT 24 Apr 14:38:04 14:40:29 18° 292° (WNW) 14:42:53 437.505
SPROUT 24 Apr 14:44:05 14:46:27 15° 295° (WNW) 14:48:49 437.525
YUBILEINY 24 Apr 14:48:03 14:54:53 24° 67° (ENE) 15:01:39 435.215
Oscar 19 24 Apr 14:50:08 14:54:01 21° 266° (W) 14:57:55 437.125/150
Tancredo 1 24 Apr 14:51:43 14:54:14 22° 25° (NNE) 14:56:44 437.200
ISS 24 Apr 14:54:16 14:56:49 21° 23° (NNE) 14:59:23 437.550
VELOX 1 24 Apr 14:59:19 15:00:37 11° 299° (WNW) 15:01:54 145.980
SO-50 24 Apr 15:08:07 15:11:27 20° 45° (NE) 15:14:46 436.795
BEESAT 24 Apr 15:23:56 15:28:12 32° 97° (E) 15:32:25 436.000
RS-15 24 Apr 15:25:52 15:36:58 36° 36° (NE) 15:47:38 29.354- 29.394
UKube-1 24 Apr 15:30:09 15:32:59 17° 295° (WNW) 15:35:50 .
MOZHAYETS 4 24 Apr 15:39:52 15:43:29 22° 94° (E) 15:47:04
BEESAT 2 24 Apr 15:52:46 15:56:38 51° 305° (NW) 16:00:34 435.950
BEESAT 3 24 Apr 16:00:54 16:03:46 19° 314° (NW) 16:06:40 437.485
AO-7 24 Apr 16:02:17 16:10:31 68° 255° (WSW) 16:18:49 .
ITUPSAT 1 24 Apr 16:02:29 16:07:17 79° 104° (ESE) 16:12:03 437.325
ITAMSAT 1 24 Apr 16:09:12 16:14:05 42° 261° (W) 16:19:00 435.822/435.867
CUBESAT XI-V 24 Apr 16:25:55 16:27:30 11° 89° (E) 16:29:04 437.345
Tancredo 1 24 Apr 16:27:18 16:30:19 48° 222° (SW) 16:33:18 437.200
ISS 24 Apr 16:30:19 16:33:33 62° 220° (SW) 16:36:45 437.550
YUBILEINY 24 Apr 16:43:45 16:52:28 72° 266° (W) 17:01:12 435.215
SO-50 24 Apr 16:47:49 16:52:12 51° 242° (WSW) 16:56:33 436.795
DOVE 4 24 Apr 16:53:27 16:56:57 18° 64° (ENE) 17:00:26 437.250
BEESAT 24 Apr 17:01:53 17:05:50 26° 293° (WNW) 17:09:46 436.000
CUTE-I 24 Apr 17:02:02 17:04:39 14° 60° (ENE) 17:07:16 437.470
MOZHAYETS 4 24 Apr 17:16:31 17:20:40 34° 290° (WNW) 17:24:49
XW-2D 24 Apr 17:31:58 17:34:39 19° 68° (ENE) 17:37:20 145.860 - 145.880
XW-2B 24 Apr 17:38:34 17:41:28 22° 70° (ENE) 17:44:24 145.730 - 145.750
RS-15 24 Apr 17:38:37 17:50:52 81° 242° (WSW) 18:02:28 29.354- 29.394
ITUPSAT 1 24 Apr 17:42:44 17:44:26 12° 299° (WNW) 17:46:07 437.325
KKS-1 24 Apr 17:45:53 17:50:21 87° 107° (ESE) 17:54:46 437.445
LilacSat-2 24 Apr 17:46:20 17:49:36 29° 71° (ENE) 17:52:52 437.200
HO-68 24 Apr 17:49:01 17:52:51 15° 53° (NE) 17:56:41 435.675
XW-2C 24 Apr 17:49:55 17:53:12 30° 72° (ENE) 17:56:31 145.795 - 145.815
KAITUO 1B 24 Apr 17:53:41 17:56:47 26° 71° (ENE) 17:59:54 145.475/437.950
CUBESAT XI-V 24 Apr 18:00:36 18:05:18 69° 285° (WNW) 18:09:59 437.345
AO-7 24 Apr 18:02:57 18:04:41 11° 273° (W) 18:06:25 .
XW-2F 24 Apr 18:16:47 18:20:28 65° 75° (ENE) 18:24:10 145.980 - 146.000
STARS 24 Apr 18:24:23 18:28:45 82° 286° (WNW) 18:33:06 437.465
DOVE 4 24 Apr 18:28:53 18:34:07 60° 260° (W) 18:39:20 437.250
NUDT-PHONESAT 24 Apr 18:35:31 18:39:10 87° 253° (WSW) 18:42:51 437.300
CUTE-I 24 Apr 18:38:38 18:43:59 80° 256° (WSW) 18:49:22 437.470
YUBILEINY 24 Apr 18:44:35 18:47:34 12° 286° (WNW) 18:50:34 435.215
XW-2D 24 Apr 19:05:28 19:08:40 26° 264° (W) 19:11:53 145.860 - 145.880
XW-2B 24 Apr 19:12:34 19:15:34 23° 265° (W) 19:18:36 145.730 - 145.750
CUTE 1.7 + AOD 2 24 Apr 19:14:31 19:18:25 39° 72° (ENE) 19:22:22 437.475
STRAND 1 24 Apr 19:17:50 19:20:50 16° 91° (E) 19:23:49 437.568
AAUSAT CUBESAT 2 24 Apr 19:20:21 19:22:34 14° 65° (ENE) 19:24:47 437.432
LilacSat-2 24 Apr 19:21:22 19:23:54 17° 266° (W) 19:26:28 437.200
XW-2A 24 Apr 19:22:10 19:25:24 47° 75° (ENE) 19:28:39 145.665 - 145.685
XW-2C 24 Apr 19:25:03 19:27:28 16° 267° (W) 19:29:52 145.795 - 145.815
KAITUO 1B 24 Apr 19:28:11 19:30:47 18° 266° (W) 19:33:25 145.475/437.950
HO-68 24 Apr 19:32:18 19:39:26 79° 72° (ENE) 19:46:38 435.675
SEEDS 24 Apr 19:38:51 19:42:50 47° 73° (ENE) 19:46:54 437.485
O/OREOS (USA 219) 24 Apr 19:44:10 19:46:43 15° 54° (NE) 19:49:15 437.305
UWE-3 24 Apr 19:48:18 19:51:52 26° 70° (ENE) 19:55:23 435.000/436.395/437.385
RS-15 24 Apr 19:53:57 20:01:13 19° 263° (W) 20:08:19 29.354- 29.394
CUBEBUG 2 24 Apr 19:55:49 20:00:07 53° 74° (ENE) 20:04:18 437.445
M-CUBED/EXP-1 PRIME 24 Apr 20:15:00 20:19:02 42° 103° (ESE) 20:22:45 437.505
NO-84 24 Apr 20:42:19 20:46:00 89° 308° (NW) 20:49:21 435.350 FM
ZACube-1 24 Apr 20:48:09 20:52:21 70° 76° (ENE) 20:56:31 437.345
AO-85 24 Apr 20:49:57 20:50:34 10° 40° (NE) 20:51:11 145.980
CUTE 1.7 + AOD 2 24 Apr 20:51:43 20:54:25 16° 268° (W) 20:57:07 437.475
AAUSAT CUBESAT 2 24 Apr 20:53:37 20:57:35 47° 261° (W) 21:01:38 437.432
STRAND 1 24 Apr 20:55:21 21:00:22 59° 287° (WNW) 21:05:22 437.568
AO-73 24 Apr 20:56:23 21:00:35 79° 75° (ENE) 21:04:45 145.935
Oscar 11 24 Apr 21:14:34 21:18:51 77° 257° (WSW) 21:23:10 .
SEEDS 24 Apr 21:16:44 21:18:47 13° 269° (W) 21:20:51 437.485
O/OREOS (USA 219) 24 Apr 21:22:02 21:26:34 62° 252° (WSW) 21:31:03 437.305
HO-68 24 Apr 21:23:18 21:27:52 18° 269° (W) 21:32:28 435.675
UWE-3 24 Apr 21:24:41 21:28:15 25° 264° (W) 21:31:47 435.000/436.395/437.385
CUBEBUG 2 24 Apr 21:35:01 21:36:59 13° 268° (W) 21:38:58 437.445
OBJECT BX 24 Apr 21:37:24 21:40:45 36° 73° (ENE) 21:44:07 145.990 - 145.960
M-CUBED/EXP-1 PRIME 24 Apr 21:50:19 21:53:03 17° 301° (WNW) 21:55:40 437.505
DELFI C3 24 Apr 21:57:23 22:01:21 87° 258° (WSW) 22:05:22 145.870
FO-29 24 Apr 22:08:15 22:11:03 14° 92° (E) 22:13:53 435.910
ESTCUBE 1 24 Apr 22:20:45 22:22:28 12° 62° (ENE) 22:24:10 437.505/2401.250
TIGRISAT 24 Apr 22:21:14 22:24:33 22° 95° (E) 22:27:52 435.000
NO-84 24 Apr 22:22:00 22:23:53 14° 333° (NNW) 22:25:41 435.350 FM
AO-85 24 Apr 22:27:33 22:31:32 86° 58° (ENE) 22:35:42 145.980
BEESAT 3 24 Apr 22:39:52 22:43:04 22° 48° (NE) 22:46:13 437.485
